Weather in Kireyevo

Russia / Volgograd Oblast     50°00′37″N   44°28′56″E
temp.,
°C
wind,
m/s
gust,
m/s
humid.,
%
clouds,
%
prec.,
mm/h
press.,
hPa
HPBL,
m
25 february, thu
thu2500:00−19wnw2282100 0.0 104070
03:00−19sw127998 0.0 103920
06:00−16ssw3683100 0.0 1037256
09:00−13ssw5882100 0.0 1035369
12:00−11ssw71189100 0.2 1032569
15:00−9sw81290100 0.6 1029623
18:00−9sw71394100 1.5 1026551
21:00−8sw71494100 2.0 1023457
26 february, fri
fri2600:00−5wsw81493100 0.9 1019404
03:00−1w71395100 1.3 1018376
06:000w5997100 0.1 1017256
09:00+1w5998100 0.3 1018272
12:00+2w59100100 0.0 1017273
15:00+2w51298100 0.2 1016304
18:00+2w51199100 0.0 1015302
21:00+2w71597100 0.0 1014457
27 february, sat
sat2700:00+2w71596100 0.1 1011424
03:00+2w71595100 0.2 1010439
06:00+1w61395100 0.1 1009435
09:00+1w61296100 0.1 1008510
12:00+2w61295100 0.0 1007606
15:00+1w61298100 0.1 1007640
18:00+1wnw61197100 0.1 1007567
21:000w6129398 0.1 1008589
28 february, sun
sun2800:000w6119781 0.0 1007584
03:000wnw6119591 0.2 1008590
06:00−1nw599596 0.1 1009394
09:00−5nnw588374 0.2 1011450
12:00−4nnw468154 0.0 1012559
15:00−5nnw578173 0.0 1014588
18:00−7nnw578696 0.0 1015581
21:00−8nnw578498 0.1 1018552
1 march, mon
mon100:00−9nnw588689 0.0 1020494
03:00−10nnw478661 0.0 1021426
06:00−10nnw58870 0.0 1023444
09:00−9nnw588322 0.0 1024501
12:00−8nnw567980 0.0 1026553
15:00−7nnw577876 0.0 1026558
18:00−9nnw588562 0.0 1028521
21:00−10nw378959 0.0 1029377